[[{"header":{"parameterUnit":"m.s-1","parameterCategory":2,"la1":30.2991,"la2":30.254,"lo1":-89.0895,"lo2":-89.0444,"dy":0.0017,"dx":0.0017,"nx":28,"ny":28,"refTime":"2023-10-27T03:00:00:Z","depth":"0","parameterNumber":2,"parameterNumberName":"U-component_of_CURRENTS"},"data":[0,0,0,0,0,0,0,0,0,0,0,0,0,0,0,0,0,0,0,0,0,0,0,0,0,0,0,0,0,0,0,0,0,0,0,0,0,0,0,0,0,0,0,0,0,0,0,0,0,0,0,0,0,0,0,0,0,0,-0.2706,-0.2706,0,-0.2697,-0.2697,-0.2697,-0.268,-0.2679,-0.2679,-0.2679,-0.2599,-0.2597,-0.2595,0,0,0,0,0,0,0,0,0,0,0,0,0,-0.2655,-0.2657,-0.2706,-0.2706,-0.2706,-0.2697,-0.2697,-0.2697,-0.268,-0.2679,-0.2679,-0.2678,-0.2599,-0.2597,-0.2595,0,0,0,0,0,0,0,0,0,0,0,0,0,-0.2665,-0.2657,-0.2706,-0.2696,-0.2695,-0.2697,-0.2697,-0.2697,-0.268,-0.2679,-0.2679,-0.2678,-0.26,-0.2597,-0.2595,-0.2588,0,0,-0.2586,-0.2585,0,0,0,0,0,0,0,0,-0.2665,-0.2667,-0.2698,-0.2697,-0.2696,-0.2689,-0.2649,-0.2657,-0.268,-0.2686,-0.2679,-0.2678,-0.2622,-0.2618,-0.2618,-0.2584,-0.2581,-0.2586,-0.2584,-0.2583,-0.2582,0,0,0,0,0,0,0,-0.2664,-0.2667,-0.2703,-0.2698,-0.2697,-0.2674,-0.2675,-0.2651,-0.2656,-0.2685,-0.2684,-0.2683,-0.2621,-0.2621,-0.2616,-0.2579,-0.2586,-0.2584,-0.2582,-0.2581,-0.2639,-0.2642,0,0,0,0,0,0,-0.2669,-0.2667,-0.2703,-0.2702,-0.2679,-0.2675,-0.2677,-0.2692,-0.2658,-0.2652,-0.2683,-0.2682,-0.2626,-0.2619,-0.2613,-0.2673,-0.2583,-0.2581,-0.2579,-0.2636,-0.264,-0.2643,0,0,0,0,0,0,-0.2668,-0.2673,-0.2703,-0.2683,-0.2685,-0.2677,-0.2694,-0.2692,-0.27,-0.2657,-0.265,-0.2695,-0.2625,-0.2617,-0.2618,-0.2667,-0.2579,-0.2577,-0.2632,-0.2637,-0.2642,-0.2747,0,0,0,0,0,0,-0.2667,-0.2673,-0.2686,-0.2684,-0.2687,-0.2741,-0.2694,-0.2692,-0.27,-0.2698,-0.2664,-0.2656,-0.2624,-0.2623,-0.2616,-0.2661,-0.2575,-0.2628,-0.2635,-0.264,-0.2739,-0.2755,-0.2768,0,0,0,0,0,-0.2665,-0.2691,-0.2687,-0.2691,-0.2705,-0.2743,-0.2744,-0.2734,-0.2701,-0.2733,-0.27,-0.2657,-0.2657,-0.2623,-0.2613,-0.2659,-0.2625,-0.2633,-0.264,-0.2733,-0.2752,-0.2767,0,0,0,0,0,0,-0.2676,-0.2691,-0.2687,-0.2716,-0.2743,-0.2741,-0.2754,-0.2743,-0.2742,-0.2727,-0.2678,-0.267,-0.2699,-0.2668,-0.2632,-0.2701,-0.2642,-0.2648,-0.2716,-0.2733,-0.2747,-0.2705,-0.2573,0,0,0,0,0,-0.2685,-0.2702,-0.2726,-0.2747,-0.2763,-0.2758,-0.2766,-0.2767,-0.2761,-0.276,-0.2732,-0.2714,-0.2722,-0.2716,-0.2715,-0.2732,-0.265,-0.2766,-0.278,-0.2792,-0.2757,-0.2694,-0.2697,-0.2667,-0.2667,-0.2667,0,0,-0.2683,-0.2699,-0.2703,-0.2749,-0.2757,-0.2794,-0.2763,-0.279,-0.2813,-0.2749,-0.2762,-0.2757,-0.2741,-0.2777,-0.2787,-0.2752,-0.2763,-0.2801,-0.2811,-0.2768,-0.2701,-0.2703,-0.2705,-0.2672,-0.2671,-0.267,0,0,-0.2697,-0.2719,-0.274,-0.2776,-0.2809,-0.2821,-0.2836,-0.285,-0.2856,-0.2876,-0.2848,-0.2863,-0.2859,-0.2864,-0.2863,-0.2951,-0.2844,-0.2973,-0.2997,-0.2938,-0.2938,-0.2937,-0.2843,-0.2832,-0.2974,-0.2974,-0.2974,0,-0.2693,-0.272,-0.2755,-0.2798,-0.2812,-0.2838,-0.2866,-0.2897,-0.2907,-0.2896,-0.2897,-0.2893,-0.2899,-0.2919,-0.2972,-0.2979,-0.2905,-0.293,-0.295,-0.2947,-0.2944,-0.2848,-0.2835,-0.298,-0.298,-0.2979,-0.2978,0,-0.2719,-0.2751,-0.2772,-0.2827,-0.2871,-0.2897,-0.295,-0.2977,-0.2977,-0.2978,-0.2996,-0.3005,-0.2982,-0.3033,-0.3029,-0.3037,-0.2978,-0.2976,-0.2892,-0.2952,-0.2849,-0.2833,-0.2989,-0.2987,-0.2985,-0.2983,0,0,-0.2636,-0.2762,-0.2757,-0.2769,-0.2875,-0.2886,-0.2969,-0.3003,-0.2977,-0.3038,-0.2994,-0.3085,-0.3055,-0.3054,-0.3064,-0.3044,-0.2999,-0.3006,-0.3,-0.2885,-0.2824,-0.2762,-0.2738,-0.2989,-0.2987,-0.2985,-0.2761,0,-0.2618,-0.2676,-0.2763,-0.2796,-0.2811,-0.2894,-0.2939,-0.2985,-0.3004,-0.298,-0.3023,-0.2995,-0.3077,-0.3042,-0.3055,-0.3005,-0.296,-0.3056,-0.2804,-0.2796,-0.2711,-0.2719,-0.2621,-0.241,-0.2744,-0.2742,-0.274,0,-0.2568,-0.2609,-0.2652,-0.2715,-0.2728,-0.2767,-0.2782,-0.2831,-0.2868,-0.2874,-0.2896,-0.29,-0.292,-0.295,-0.2896,-0.2946,-0.2883,-0.2849,-0.2839,-0.2719,-0.2704,-0.2407,-0.2368,-0.2368,-0.2714,-0.2716,-0.2718,0,-0.2395,-0.2498,-0.2512,-0.2543,-0.2654,-0.2665,-0.2707,-0.2765,-0.2767,-0.2773,-0.274,-0.2779,-0.2739,-0.2727,-0.273,-0.2778,-0.2617,-0.2664,-0.2538,-0.2531,-0.2362,-0.2345,-0.2262,-0.2563,-0.2564,-0.2564,-0.2565,0,-0.2296,-0.2287,-0.2418,-0.2413,-0.239,-0.2511,-0.2478,-0.2531,-0.2566,-0.2545,-0.2641,-0.2604,-0.2675,-0.263,-0.2645,-0.2541,-0.2544,-0.2506,-0.2465,-0.2402,-0.2391,-0.2315,-0.2348,-0.2556,-0.2558,-0.2559,-0.2561,0,-0.2108,-0.2202,-0.2202,-0.2297,-0.2312,-0.2282,-0.2353,-0.2325,-0.2382,-0.2352,-0.2346,-0.2417,-0.2375,-0.2418,-0.2354,-0.2381,-0.2262,-0.2259,-0.2173,-0.2128,-0.2047,-0.209,-0.1897,-0.1851,-0.2073,-0.207,-0.2067,0,-0.2026,-0.2011,-0.2082,-0.2071,-0.2113,-0.2107,-0.2107,-0.2204,-0.2206,-0.2244,-0.2213,-0.2173,-0.2164,-0.2066,-0.2072,-0.2016,-0.2073,-0.189,-0.1991,-0.1996,-0.2013,-0.2058,-0.2038,-0.18,-0.1796,-0.1792,-0.179,0,-0.1855,-0.1884,-0.1895,-0.188,-0.1874,-0.1882,-0.1903,-0.1883,-0.1996,-0.1985,-0.1975,-0.196,-0.19,-0.1838,-0.1782,-0.1758,-0.1856,-0.1812,-0.1829,-0.1791,-0.1814,-0.1764,-0.1988,-0.1757,-0.176,-0.1763,-0.1764,-0.1766,-0.171,-0.168,-0.1697,-0.1672,-0.1672,-0.1658,-0.1607,-0.1663,-0.1648,-0.1645,-0.1729,-0.1682,-0.1684,-0.1605,-0.1581,-0.15,-0.1578,-0.1497,-0.1539,-0.1577,-0.1566,-0.1713,-0.1453,-0.1454,-0.1455,-0.1457,-0.1458,0,-0.1523,-0.1519,-0.149,-0.1463,-0.1412,-0.1477,-0.147,-0.1417,-0.1368,-0.1423,-0.1415,-0.1407,-0.1348,-0.1369,-0.1318,-0.1273,-0.1277,-0.1254,-0.1303,-0.1291,-0.1398,-0.1427,-0.1134,-0.1134,-0.1134,-0.1134,-0.1134,-0.1134,-0.1418,-0.1341,-0.1347,-0.122,-0.1204,-0.1104,-0.1076,-0.1034,-0.1045,-0.1005,-0.1028,-0.1082,-0.1152,-0.1273,-0.1228,-0.1172,-0.1187,-0.1118,-0.1178,-0.1292,-0.132,-0.1347,-0.1382,-0.1085,-0.1085,-0.1021,-0.1021,-0.1021]},{"header":{"parameterUnit":"m.s-1","parameterCategory":2,"la1":30.2991,"la2":30.254,"lo1":-89.0895,"lo2":-89.0444,"dy":0.0017,"dx":0.0017,"nx":28,"ny":28,"refTime":"2023-10-27T03:00:00:Z","depth":"0","parameterNumber":3,"parameterNumberName":"V-component_of_CURRENTS"},"data":[0,0,0,0,0,0,0,0,0,0,0,0,0,0,0,0,0,0,0,0,0,0,0,0,0,0,0,0,0,0,0,0,0,0,0,0,0,0,0,0,0,0,0,0,0,0,0,0,0,0,0,0,0,0,0,0,0,0,-0.0048,-0.0047,0,0.0035,0.0037,0.0038,0.0085,0.0085,0.0084,0.0084,0.0207,0.021,0.0213,0,0,0,0,0,0,0,0,0,0,0,0,0,-0.012,-0.0119,-0.0048,-0.0047,-0.0047,0.0035,0.0037,0.0038,0.0085,0.0085,0.0084,0.0084,0.0206,0.021,0.0214,0,0,0,0,0,0,0,0,0,0,0,0,0,-0.0065,-0.0119,-0.0048,-0.0016,-0.0012,0.0035,0.0037,0.0038,0.0085,0.0085,0.0084,0.0084,0.0204,0.0209,0.0214,0.025,0,0,0.023,0.0232,0,0,0,0,0,0,0,0,-0.0068,-0.0062,-0.0021,-0.0018,-0.0014,0.0047,0.0056,0.011,0.0085,0.0051,0.0084,0.0084,0.0155,0.0164,0.0184,0.0256,0.0261,0.023,0.0233,0.0236,0.0237,0,0,0,0,0,0,0,-0.0072,-0.0065,-0.0012,-0.0021,-0.0016,0.001,0.0018,0.0067,0.0106,0.0054,0.0057,0.0061,0.0158,0.0179,0.0187,0.0263,0.023,0.0235,0.0238,0.024,0.0395,0.0396,0,0,0,0,0,0,-0.0091,-0.0069,-0.0015,-0.001,-0.0046,0.0011,0.002,0.003,0.0105,0.0115,0.0061,0.0063,0.0171,0.0181,0.0192,0.0244,0.0236,0.024,0.0243,0.0394,0.0395,0.0396,0,0,0,0,0,0,-0.0093,-0.0087,-0.0018,-0.004,-0.003,0.0012,0.0023,0.0032,0.0049,0.011,0.0121,0.0069,0.0171,0.0185,0.0239,0.0248,0.0243,0.0247,0.0392,0.0394,0.0396,0.0344,0,0,0,0,0,0,-0.0095,-0.0088,-0.0086,-0.0042,-0.003,0.0006,0.0024,0.0033,0.005,0.0053,0.012,0.0131,0.0172,0.0232,0.0244,0.0255,0.0251,0.0391,0.0393,0.0395,0.0344,0.0344,0.0343,0,0,0,0,0,-0.0098,-0.0101,-0.0087,-0.008,-0.0029,0.0006,0.0015,0.0046,0.005,0.006,0.0108,0.0129,0.0253,0.0236,0.0251,0.0264,0.039,0.0393,0.0395,0.0345,0.0344,0.0343,0,0,0,0,0,0,-0.0138,-0.0095,-0.0079,-0.007,-0.0036,0.0012,0.0017,0.004,0.0086,0.0086,0.0143,0.0159,0.0212,0.0248,0.0228,0.0317,0.0326,0.0331,0.0282,0.0282,0.0281,0.0251,0.0255,0,0,0,0,0,-0.0146,-0.0134,-0.0088,-0.0083,-0.007,-0.0027,-0.0011,0.0013,0.0056,0.0074,0.0125,0.0181,0.0235,0.0263,0.0318,0.0364,0.0384,0.0384,0.0383,0.0382,0.037,0.0393,0.0392,0.0404,0.0404,0.0404,0,0,-0.0165,-0.0138,-0.0133,-0.0091,-0.0066,-0.005,-0.0017,0.0002,0.0021,0.0082,0.0124,0.018,0.0248,0.0303,0.0329,0.0332,0.0396,0.0385,0.0384,0.0371,0.0395,0.0394,0.0392,0.0406,0.0405,0.0405,0,0,-0.0202,-0.0169,-0.0175,-0.0146,-0.011,-0.0074,-0.0072,-0.0019,0.001,0.006,0.011,0.0168,0.025,0.0302,0.0337,0.0366,0.0392,0.0388,0.0358,0.0381,0.038,0.0378,0.0419,0.0422,0.0386,0.0386,0.0386,0,-0.0228,-0.0223,-0.0172,-0.0168,-0.0154,-0.009,-0.0094,-0.0048,0.0019,0.0042,0.0065,0.0189,0.0249,0.0311,0.0327,0.0362,0.0381,0.0351,0.0376,0.0376,0.0375,0.0417,0.042,0.0384,0.0384,0.0384,0.0385,0,-0.0267,-0.0261,-0.0263,-0.0232,-0.0204,-0.0195,-0.013,-0.0094,-0.005,-0.0002,0.007,0.0159,0.0226,0.0265,0.0306,0.0342,0.036,0.037,0.0367,0.037,0.0416,0.042,0.0381,0.0382,0.0382,0.0383,0,0,-0.0325,-0.0299,-0.0298,-0.0297,-0.0238,-0.022,-0.0184,-0.0131,-0.0113,-0.0027,0.0004,0.0115,0.0161,0.0204,0.0272,0.0303,0.0332,0.0328,0.033,0.0349,0.039,0.0434,0.0444,0.0335,0.0335,0.0335,0.0429,0,-0.0373,-0.0396,-0.0355,-0.0361,-0.0366,-0.0293,-0.0264,-0.0203,-0.0138,-0.0083,0.0015,0.0077,0.014,0.0174,0.0216,0.031,0.0338,0.0306,0.0402,0.0405,0.0427,0.0448,0.0474,0.0561,0.0434,0.0434,0.0435,0,-0.0417,-0.0427,-0.0456,-0.0431,-0.0425,-0.0411,-0.0355,-0.0317,-0.0221,-0.0172,-0.0096,-0.0013,0.0081,0.0117,0.0252,0.0225,0.0294,0.0359,0.0364,0.042,0.0457,0.0538,0.0574,0.0685,0.0442,0.0441,0.0441,0,-0.0485,-0.0486,-0.0517,-0.0508,-0.047,-0.0465,-0.0434,-0.0353,-0.0314,-0.0229,-0.0193,-0.0078,-0.0005,0.0085,0.0244,0.0238,0.0383,0.0391,0.0494,0.0499,0.0549,0.0557,0.0683,0.0451,0.0451,0.0451,0.045,0,-0.0542,-0.0559,-0.0555,-0.0568,-0.0584,-0.0535,-0.0525,-0.0475,-0.04,-0.0347,-0.0247,-0.0174,-0.0016,0.0105,0.0219,0.0387,0.0365,0.0492,0.0523,0.0536,0.0542,0.0663,0.0696,0.0454,0.0453,0.0453,0.0452,0,-0.0595,-0.0601,-0.0628,-0.0622,-0.0617,-0.0624,-0.0577,-0.0561,-0.0495,-0.0424,-0.0397,-0.0236,-0.0071,0.0092,0.027,0.037,0.0584,0.0565,0.0584,0.0615,0.0806,0.0835,0.0968,0.1038,0.0691,0.0693,0.0694,0,-0.0624,-0.0651,-0.0667,-0.068,-0.0677,-0.0679,-0.0671,-0.0612,-0.0577,-0.0443,-0.0403,-0.0236,-0.0074,0.0206,0.0399,0.0602,0.0668,0.0723,0.0712,0.0826,0.0881,0.0891,0.094,0.0771,0.0773,0.0775,0.0776,0,-0.0664,-0.0672,-0.069,-0.0723,-0.0734,-0.0739,-0.0719,-0.07,-0.0607,-0.0534,-0.0376,-0.024,0.0047,0.032,0.0564,0.0674,0.0803,0.076,0.087,0.0947,0.0974,0.1052,0.0712,0.0789,0.0788,0.0787,0.0786,0.0786,-0.0678,-0.0702,-0.0724,-0.0745,-0.0766,-0.0769,-0.0753,-0.0705,-0.0633,-0.0476,-0.0349,-0.0103,0.0247,0.0618,0.0745,0.0991,0.0945,0.1053,0.1079,0.108,0.1143,0.084,0.0952,0.0952,0.0951,0.0951,0.0951,0,-0.068,-0.0704,-0.0734,-0.0762,-0.078,-0.0783,-0.0753,-0.0704,-0.0598,-0.0434,-0.0253,0.0199,0.054,0.0837,0.1173,0.1301,0.1324,0.1352,0.1374,0.141,0.1145,0.1145,0.1314,0.1314,0.1313,0.1313,0.1313,0.1313,-0.0684,-0.0707,-0.0721,-0.0749,-0.0768,-0.0755,-0.0728,-0.0639,-0.0506,-0.022,0.0056,0.0295,0.0722,0.1247,0.1558,0.1577,0.169,0.1663,0.1733,0.155,0.1524,0.1499,0.1509,0.1751,0.1751,0.1993,0.1995,0.1997]}],[{"header":{"parameterUnit":"m.s-1","parameterCategory":2,"la1":30.2991,"la2":30.254,"lo1":-89.0895,"lo2":-89.0444,"dy":0.0017,"dx":0.0017,"nx":28,"ny":28,"refTime":"2023-10-27T03:00:00:Z","depth":"2","parameterNumber":2,"parameterNumberName":"U-component_of_CURRENTS"},"data":[0,0,0,0,0,0,0,0,0,0,0,0,0,0,0,0,0,0,0,0,0,0,0,0,0,0,0,0,0,0,0,0,0,0,0,0,0,0,0,0,0,0,0,0,0,0,0,0,0,0,0,0,0,0,0,0,0,0,-0.2217,-0.2217,0,-0.22,-0.22,-0.22,-0.2225,-0.2226,-0.2227,-0.2228,-0.2279,-0.2279,-0.228,0,0,0,0,0,0,0,0,0,0,0,0,0,-0.2192,-0.2193,-0.2217,-0.2217,-0.2217,-0.22,-0.22,-0.22,-0.2225,-0.2226,-0.2227,-0.2228,-0.2279,-0.2279,-0.228,0,0,0,0,0,0,0,0,0,0,0,0,0,-0.2191,-0.2193,-0.2217,-0.2229,-0.223,-0.22,-0.22,-0.22,-0.2224,-0.2226,-0.2228,-0.2229,-0.2279,-0.2279,-0.228,-0.2253,0,0,-0.2282,-0.2282,0,0,0,0,0,0,0,0,-0.2191,-0.2192,-0.2227,-0.2228,-0.2229,-0.2218,-0.221,-0.2221,-0.2224,-0.2225,-0.2228,-0.223,-0.2264,-0.2266,-0.2257,-0.2255,-0.2257,-0.2282,-0.2282,-0.2282,-0.2282,0,0,0,0,0,0,0,-0.2191,-0.2192,-0.2209,-0.2227,-0.2228,-0.2208,-0.221,-0.2211,-0.2236,-0.2225,-0.2227,-0.2227,-0.2266,-0.2256,-0.2258,-0.2258,-0.2282,-0.2282,-0.2283,-0.2283,-0.2302,-0.2303,0,0,0,0,0,0,-0.2199,-0.2193,-0.221,-0.2209,-0.2215,-0.2207,-0.2209,-0.2218,-0.2235,-0.2239,-0.2226,-0.2228,-0.2254,-0.2258,-0.226,-0.2315,-0.2282,-0.2283,-0.2283,-0.2302,-0.2302,-0.2303,0,0,0,0,0,0,-0.2198,-0.2201,-0.221,-0.2201,-0.2201,-0.2207,-0.2216,-0.2217,-0.2223,-0.2235,-0.224,-0.2232,-0.2255,-0.2259,-0.2265,-0.2314,-0.2283,-0.2284,-0.2302,-0.2302,-0.2302,-0.237,0,0,0,0,0,0,-0.2198,-0.2201,-0.2209,-0.2202,-0.2202,-0.2221,-0.2215,-0.2216,-0.222,-0.2224,-0.2242,-0.2247,-0.2257,-0.2264,-0.2265,-0.2315,-0.2284,-0.2302,-0.2302,-0.2302,-0.2368,-0.2373,-0.2377,0,0,0,0,0,-0.2197,-0.221,-0.221,-0.2212,-0.2214,-0.2222,-0.222,-0.2227,-0.2219,-0.2234,-0.2227,-0.2247,-0.2268,-0.2263,-0.2266,-0.2317,-0.2302,-0.2302,-0.2302,-0.2366,-0.2372,-0.2377,0,0,0,0,0,0,-0.2198,-0.2214,-0.2213,-0.2229,-0.2235,-0.2227,-0.2235,-0.2228,-0.223,-0.2236,-0.2235,-0.224,-0.2265,-0.2265,-0.226,-0.2319,-0.2294,-0.2295,-0.2341,-0.2347,-0.2352,-0.2353,-0.2285,0,0,0,0,0,-0.2201,-0.2213,-0.2225,-0.223,-0.2242,-0.2234,-0.2235,-0.2244,-0.2242,-0.2245,-0.2255,-0.226,-0.2263,-0.2284,-0.2285,-0.2312,-0.2271,-0.2347,-0.2351,-0.2356,-0.2355,-0.2326,-0.2328,-0.2304,-0.2304,-0.2304,0,0,-0.2198,-0.2205,-0.2211,-0.223,-0.2232,-0.2251,-0.224,-0.2256,-0.2275,-0.225,-0.2278,-0.227,-0.2265,-0.2298,-0.2312,-0.2313,-0.2334,-0.2356,-0.236,-0.2357,-0.2326,-0.2329,-0.2331,-0.2304,-0.2304,-0.2304,0,0,-0.2191,-0.2212,-0.2223,-0.224,-0.2259,-0.2266,-0.2274,-0.2288,-0.2307,-0.232,-0.2306,-0.232,-0.2331,-0.2348,-0.2351,-0.2376,-0.2346,-0.2385,-0.2433,-0.2405,-0.2407,-0.2408,-0.2333,-0.2327,-0.2406,-0.2406,-0.2406,0,-0.2187,-0.22,-0.2225,-0.2244,-0.2256,-0.2275,-0.2292,-0.2316,-0.2329,-0.2334,-0.2346,-0.2345,-0.2359,-0.238,-0.24,-0.2394,-0.2343,-0.2419,-0.2412,-0.2413,-0.2413,-0.2335,-0.2328,-0.2409,-0.2409,-0.2409,-0.2408,0,-0.2181,-0.2207,-0.2218,-0.225,-0.2275,-0.2293,-0.2338,-0.2362,-0.238,-0.2393,-0.242,-0.2431,-0.2429,-0.2452,-0.244,-0.2459,-0.2407,-0.2409,-0.2403,-0.242,-0.2336,-0.2327,-0.2414,-0.2413,-0.2412,-0.2411,0,0,-0.2121,-0.22,-0.2201,-0.2218,-0.2281,-0.229,-0.2345,-0.2378,-0.2381,-0.2441,-0.2437,-0.2492,-0.2494,-0.2495,-0.2499,-0.2502,-0.2467,-0.2466,-0.2463,-0.2396,-0.2356,-0.2289,-0.2272,-0.2463,-0.2463,-0.2463,-0.2287,0,-0.21,-0.2136,-0.2186,-0.2216,-0.2239,-0.2293,-0.2326,-0.2368,-0.2401,-0.241,-0.2462,-0.246,-0.2516,-0.2502,-0.2528,-0.2466,-0.245,-0.2511,-0.2343,-0.2337,-0.2282,-0.2263,-0.2121,-0.1951,-0.2278,-0.2276,-0.2275,0,-0.206,-0.2092,-0.2127,-0.2189,-0.2203,-0.2225,-0.2259,-0.2297,-0.2343,-0.2365,-0.2412,-0.2426,-0.2457,-0.2481,-0.2448,-0.2477,-0.2423,-0.2387,-0.238,-0.229,-0.2255,-0.199,-0.1922,-0.2259,-0.2261,-0.2262,-0.2263,0,-0.1968,-0.2042,-0.2064,-0.2087,-0.2167,-0.218,-0.2213,-0.2267,-0.2283,-0.2321,-0.2309,-0.2371,-0.2355,-0.2353,-0.2335,-0.2367,-0.2252,-0.228,-0.2164,-0.2156,-0.1989,-0.1968,-0.2226,-0.2227,-0.2227,-0.2227,-0.2228,0,-0.1912,-0.1921,-0.2019,-0.2023,-0.2024,-0.2112,-0.2107,-0.2148,-0.2189,-0.2186,-0.2273,-0.2258,-0.2319,-0.2284,-0.2283,-0.2192,-0.2213,-0.2151,-0.2112,-0.2005,-0.1989,-0.2232,-0.2235,-0.2221,-0.2222,-0.2224,-0.2225,0,-0.18,-0.1872,-0.1886,-0.1964,-0.1981,-0.1974,-0.2027,-0.202,-0.208,-0.2069,-0.2073,-0.213,-0.2091,-0.2122,-0.2069,-0.2082,-0.2023,-0.1975,-0.1828,-0.1778,-0.1949,-0.1957,-0.1819,-0.1815,-0.1812,-0.181,-0.1807,0,-0.1744,-0.1746,-0.181,-0.1805,-0.1834,-0.1849,-0.1851,-0.1938,-0.1947,-0.1988,-0.1966,-0.1938,-0.1916,-0.1829,-0.1817,-0.1759,-0.1867,-0.1601,-0.1668,-0.1934,-0.191,-0.1923,-0.1936,-0.1446,-0.1441,-0.1437,-0.1433,0,-0.1616,-0.1643,-0.1655,-0.1655,-0.1656,-0.1667,-0.1694,-0.1686,-0.1782,-0.1779,-0.1766,-0.1746,-0.1682,-0.1579,-0.1523,-0.1491,-0.1619,-0.1516,-0.1798,-0.1599,-0.1575,-0.1555,-0.158,-0.1397,-0.1401,-0.1403,-0.1405,-0.1407,-0.1493,-0.1469,-0.1488,-0.1475,-0.1484,-0.1479,-0.1436,-0.1488,-0.1477,-0.1467,-0.1536,-0.1461,-0.1477,-0.1312,-0.126,-0.1223,-0.1342,-0.1318,-0.1333,-0.1351,-0.1368,-0.1344,-0.112,-0.1122,-0.1124,-0.1125,-0.1127,0,-0.1327,-0.1325,-0.1307,-0.1289,-0.125,-0.1316,-0.1317,-0.1268,-0.1217,-0.1246,-0.1224,-0.1096,-0.1032,-0.1051,-0.0941,-0.0946,-0.0961,-0.0917,-0.0944,-0.0979,-0.101,-0.1014,-0.0669,-0.0668,-0.0667,-0.0666,0,0,-0.1231,-0.1165,-0.1171,-0.1064,-0.1057,-0.0971,-0.0947,-0.0908,-0.0905,-0.0839,-0.0815,-0.0905,-0.0976,-0.0805,-0.0788,-0.0707,-0.083,-0.0666,-0.1025,-0.1087,-0.1117,-0.1226,-0.1268,0,0,0,0,0]},{"header":{"parameterUnit":"m.s-1","parameterCategory":2,"la1":30.2991,"la2":30.254,"lo1":-89.0895,"lo2":-89.0444,"dy":0.0017,"dx":0.0017,"nx":28,"ny":28,"refTime":"2023-10-27T03:00:00:Z","depth":"2","parameterNumber":3,"parameterNumberName":"V-component_of_CURRENTS"},"data":[0,0,0,0,0,0,0,0,0,0,0,0,0,0,0,0,0,0,0,0,0,0,0,0,0,0,0,0,0,0,0,0,0,0,0,0,0,0,0,0,0,0,0,0,0,0,0,0,0,0,0,0,0,0,0,0,0,0,-0.015,-0.0149,0,-0.0087,-0.0086,-0.0085,-0.0049,-0.0049,-0.005,-0.005,0.0077,0.008,0.0083,0,0,0,0,0,0,0,0,0,0,0,0,0,-0.0208,-0.0207,-0.015,-0.0149,-0.0149,-0.0087,-0.0086,-0.0085,-0.0049,-0.0049,-0.005,-0.005,0.0075,0.0079,0.0084,0,0,0,0,0,0,0,0,0,0,0,0,0,-0.0166,-0.0207,-0.015,-0.0125,-0.0122,-0.0087,-0.0086,-0.0085,-0.0049,-0.0049,-0.005,-0.005,0.0074,0.0079,0.0084,0.0117,0,0,0.01,0.0102,0,0,0,0,0,0,0,0,-0.0169,-0.0164,-0.0129,-0.0127,-0.0123,-0.0078,-0.0061,-0.0015,-0.0049,-0.0075,-0.005,-0.005,0.003,0.0038,0.0052,0.0122,0.0128,0.01,0.0103,0.0105,0.0107,0,0,0,0,0,0,0,-0.0172,-0.0166,-0.0123,-0.0129,-0.0125,-0.0106,-0.01,-0.0052,-0.0021,-0.0073,-0.0071,-0.0066,0.0032,0.0047,0.0055,0.013,0.01,0.0104,0.0108,0.011,0.0222,0.0222,0,0,0,0,0,0,-0.0185,-0.0169,-0.0125,-0.0122,-0.0149,-0.0105,-0.0099,-0.0091,-0.0022,-0.0013,-0.0066,-0.0065,0.0038,0.0049,0.006,0.0099,0.0105,0.011,0.0113,0.0222,0.0222,0.0222,0,0,0,0,0,0,-0.0186,-0.0181,-0.0128,-0.0146,-0.0138,-0.0105,-0.0096,-0.009,-0.0078,-0.0019,-0.0008,-0.0062,0.0039,0.0053,0.0093,0.0104,0.0112,0.0117,0.0222,0.0222,0.0222,0.0179,0,0,0,0,0,0,-0.0188,-0.0182,-0.0181,-0.0146,-0.0137,-0.0116,-0.0096,-0.0088,-0.0076,-0.0073,-0.001,0.0001,0.004,0.0085,0.0098,0.0111,0.0121,0.0222,0.0222,0.0222,0.0181,0.0178,0.0175,0,0,0,0,0,-0.019,-0.0192,-0.0181,-0.0176,-0.0137,-0.0116,-0.011,-0.0085,-0.0076,-0.0074,-0.0035,-0.0001,0.0094,0.0089,0.0104,0.0119,0.0222,0.0222,0.0222,0.0182,0.0178,0.0175,0,0,0,0,0,0,-0.0221,-0.0187,-0.0175,-0.0167,-0.0148,-0.0111,-0.0108,-0.009,-0.0057,-0.0055,0.0001,0.0015,0.0052,0.0089,0.0083,0.0149,0.0163,0.0166,0.0127,0.0125,0.0122,0.0115,0.0125,0,0,0,0,0,-0.0227,-0.0218,-0.0186,-0.0182,-0.0174,-0.0141,-0.013,-0.0114,-0.0082,-0.0068,-0.0021,0.0026,0.0064,0.0095,0.0133,0.0177,0.0206,0.0194,0.0192,0.0189,0.0193,0.0233,0.0234,0.0221,0.0221,0.0221,0,0,-0.0242,-0.022,-0.0218,-0.0188,-0.017,-0.0162,-0.0134,-0.0124,-0.0111,-0.0057,-0.0023,0.0015,0.007,0.0109,0.0131,0.0145,0.0207,0.0189,0.0186,0.0192,0.0233,0.0234,0.0235,0.0221,0.0221,0.0221,0,0,-0.0271,-0.0246,-0.025,-0.0233,-0.0209,-0.0183,-0.0183,-0.0145,-0.0123,-0.0089,-0.0051,-0.0007,0.0058,0.0103,0.0133,0.014,0.0182,0.0149,0.0145,0.0183,0.0185,0.0186,0.022,0.0226,0.0159,0.0158,0.0158,0,-0.0291,-0.0288,-0.0251,-0.025,-0.024,-0.0197,-0.0202,-0.017,-0.0122,-0.0099,-0.0086,0.0011,0.0058,0.0114,0.0115,0.0137,0.0158,0.0153,0.018,0.0182,0.0184,0.0219,0.0225,0.0156,0.0157,0.0157,0.0157,0,-0.0322,-0.0319,-0.0321,-0.03,-0.0283,-0.028,-0.0235,-0.0209,-0.0174,-0.0135,-0.0078,-0.0011,0.0048,0.0071,0.0099,0.0143,0.0151,0.0161,0.0186,0.0183,0.022,0.0227,0.0153,0.0154,0.0155,0.0155,0,0,-0.0362,-0.0347,-0.0346,-0.0348,-0.0309,-0.03,-0.0272,-0.0231,-0.021,-0.0146,-0.0109,-0.003,0.0011,0.0046,0.0095,0.014,0.0176,0.0155,0.0158,0.0186,0.0253,0.0275,0.0285,0.0185,0.0186,0.0187,0.027,0,-0.0397,-0.0419,-0.0388,-0.0398,-0.0407,-0.0352,-0.0329,-0.0283,-0.023,-0.0179,-0.0094,-0.0045,0.0001,0.0028,0.0082,0.0151,0.0194,0.0153,0.0256,0.0259,0.0277,0.0294,0.0262,0.0335,0.0277,0.0279,0.028,0,-0.0432,-0.0441,-0.0469,-0.0452,-0.0447,-0.0439,-0.0391,-0.0362,-0.0276,-0.0234,-0.016,-0.0096,-0.0006,0.002,0.0152,0.012,0.018,0.0235,0.024,0.0282,0.0295,0.0331,0.035,0.0292,0.0291,0.029,0.0289,0,-0.0487,-0.0489,-0.0516,-0.0511,-0.0486,-0.0479,-0.0455,-0.0385,-0.0351,-0.027,-0.0236,-0.0125,-0.0063,0.0029,0.0157,0.0148,0.0293,0.0296,0.0375,0.0377,0.0384,0.0384,0.0376,0.0376,0.0376,0.0375,0.0375,0,-0.0533,-0.0549,-0.0548,-0.0563,-0.0574,-0.0536,-0.0524,-0.0479,-0.0411,-0.0364,-0.0271,-0.0205,-0.006,0.0049,0.0147,0.0293,0.0289,0.0383,0.0405,0.0367,0.0366,0.0355,0.0352,0.0379,0.0378,0.0377,0.0377,0,-0.0585,-0.0589,-0.0617,-0.0611,-0.0606,-0.0615,-0.0574,-0.0557,-0.0492,-0.0429,-0.0406,-0.0258,-0.0112,0.0034,0.02,0.0287,0.0413,0.0459,0.0406,0.0421,0.0471,0.0465,0.0557,0.0558,0.056,0.0561,0.0562,0,-0.0616,-0.0641,-0.0657,-0.0672,-0.067,-0.0673,-0.0666,-0.0607,-0.0575,-0.0449,-0.0415,-0.0266,-0.013,0.0122,0.0288,0.0465,0.0459,0.0525,0.051,0.048,0.0492,0.0483,0.0475,0.0499,0.05,0.05,0.05,0,-0.0663,-0.0669,-0.0689,-0.0722,-0.0734,-0.0739,-0.072,-0.0703,-0.0614,-0.0545,-0.0408,-0.0294,-0.0044,0.0166,0.038,0.047,0.0495,0.0537,0.0531,0.0456,0.0432,0.0442,0.0435,0.0503,0.0502,0.0502,0.0502,0.0502,-0.0687,-0.0713,-0.0735,-0.0758,-0.078,-0.0784,-0.0775,-0.0727,-0.0663,-0.0523,-0.0408,-0.0208,-0.0022,0.0307,0.0442,0.0555,0.0558,0.0578,0.0575,0.0572,0.0547,0.0527,0.0611,0.0611,0.0611,0.0612,0.0612,0,-0.0707,-0.073,-0.0761,-0.0794,-0.0816,-0.0812,-0.0786,-0.0748,-0.0659,-0.0512,-0.0357,-0.0122,0.0118,0.03,0.0494,0.0608,0.0581,0.0607,0.0551,0.0548,0.0545,0.0517,0.0575,0.0575,0.0575,0.0575,0,0,-0.072,-0.0749,-0.0762,-0.0801,-0.0823,-0.0823,-0.0802,-0.073,-0.0616,-0.0466,-0.0304,-0.008,0.0148,0.0281,0.0409,0.05,0.0486,0.0494,0.051,0.0424,0.042,0.0514,0.0467,0,0,0,0,0]}],[{"header":{"parameterUnit":"m.s-1","parameterCategory":2,"la1":30.2991,"la2":30.254,"lo1":-89.0895,"lo2":-89.0444,"dy":0.0017,"dx":0.0017,"nx":28,"ny":28,"refTime":"2023-10-27T03:00:00:Z","depth":"4","parameterNumber":2,"parameterNumberName":"U-component_of_CURRENTS"},"data":[0,0,0,0,0,0,0,0,0,0,0,0,0,0,0,0,0,0,0,0,0,0,0,0,0,0,0,0,0,0,0,0,0,0,0,0,0,0,0,0,0,0,0,0,0,0,0,0,0,0,0,0,0,0,0,0,0,0,-0.1128,-0.1128,0,-0.1141,-0.1141,-0.1141,-0.1129,-0.1129,-0.1129,-0.1129,-0.1055,-0.1053,-0.1051,0,0,0,0,0,0,0,0,0,0,0,0,0,-0.108,-0.108,-0.1128,-0.1128,-0.1129,-0.1141,-0.1141,-0.1141,-0.1129,-0.1129,-0.1129,-0.1129,-0.1055,-0.1053,-0.1051,0,0,0,0,0,0,0,0,0,0,0,0,0,-0.1094,-0.1081,-0.1128,-0.1127,-0.1128,-0.1141,-0.1141,-0.1141,-0.1129,-0.1129,-0.1129,-0.1129,-0.1056,-0.1053,-0.105,-0.1037,0,0,-0.1042,-0.1041,0,0,0,0,0,0,0,0,-0.1093,-0.1095,-0.1127,-0.1127,-0.1128,-0.1137,-0.1097,-0.1103,-0.1129,-0.1125,-0.1129,-0.1129,-0.1076,-0.1072,-0.1071,-0.1034,-0.1031,-0.1042,-0.104,-0.1039,-0.1038,0,0,0,0,0,0,0,-0.1092,-0.1095,-0.1129,-0.1128,-0.1128,-0.1123,-0.1124,-0.1098,-0.1097,-0.1125,-0.1125,-0.1133,-0.1076,-0.1074,-0.1069,-0.1029,-0.1042,-0.1039,-0.1038,-0.1037,-0.1056,-0.1058,0,0,0,0,0,0,-0.1099,-0.1094,-0.1129,-0.113,-0.1114,-0.1124,-0.1125,-0.1131,-0.1099,-0.1096,-0.1133,-0.1132,-0.1079,-0.1072,-0.1066,-0.1117,-0.1039,-0.1036,-0.1035,-0.1053,-0.1056,-0.1058,0,0,0,0,0,0,-0.1098,-0.1102,-0.1128,-0.1115,-0.1119,-0.1125,-0.1132,-0.1131,-0.1149,-0.1107,-0.1101,-0.1153,-0.1078,-0.107,-0.1079,-0.1111,-0.1035,-0.1032,-0.1051,-0.1054,-0.1057,-0.1174,0,0,0,0,0,0,-0.1096,-0.1101,-0.1124,-0.1116,-0.112,-0.1152,-0.1132,-0.1132,-0.1154,-0.1154,-0.1121,-0.1113,-0.1077,-0.1084,-0.1077,-0.1106,-0.103,-0.1048,-0.1052,-0.1056,-0.1168,-0.1181,-0.1192,0,0,0,0,0,-0.1095,-0.1124,-0.1125,-0.113,-0.1145,-0.1153,-0.1155,-0.1156,-0.1156,-0.1169,-0.1162,-0.1115,-0.1104,-0.1084,-0.1074,-0.1104,-0.1046,-0.1051,-0.1056,-0.1162,-0.1178,-0.1192,0,0,0,0,0,0,-0.1117,-0.1126,-0.1126,-0.1158,-0.1163,-0.1153,-0.1176,-0.1172,-0.1178,-0.1184,-0.1141,-0.1133,-0.1151,-0.1117,-0.1096,-0.1124,-0.1068,-0.1071,-0.1152,-0.1167,-0.1179,-0.1155,-0.1028,0,0,0,0,0,-0.1133,-0.1152,-0.1156,-0.118,-0.1191,-0.1188,-0.1198,-0.1196,-0.1195,-0.1198,-0.1182,-0.1169,-0.1161,-0.1158,-0.114,-0.1155,-0.1124,-0.117,-0.1182,-0.1193,-0.1169,-0.1179,-0.119,-0.1074,-0.1074,-0.1074,0,0,-0.1149,-0.1155,-0.1168,-0.1186,-0.1192,-0.1214,-0.1193,-0.1216,-0.1236,-0.1187,-0.1222,-0.1209,-0.1176,-0.1197,-0.1202,-0.1174,-0.1218,-0.1199,-0.1208,-0.1178,-0.1185,-0.1196,-0.1206,-0.1078,-0.1077,-0.1077,0,0,-0.1179,-0.1197,-0.1223,-0.123,-0.1249,-0.125,-0.1264,-0.1273,-0.1285,-0.1313,-0.1289,-0.1299,-0.1291,-0.1276,-0.1265,-0.1334,-0.1283,-0.1339,-0.138,-0.1393,-0.1402,-0.1409,-0.1415,-0.1421,-0.1347,-0.1347,-0.1347,0,-0.1204,-0.1229,-0.1232,-0.1255,-0.1272,-0.1272,-0.1302,-0.1314,-0.1326,-0.1339,-0.134,-0.1347,-0.1323,-0.1336,-0.1364,-0.1359,-0.1356,-0.1327,-0.1408,-0.1415,-0.142,-0.1423,-0.1429,-0.1353,-0.1353,-0.1352,-0.1351,0,-0.1233,-0.127,-0.1288,-0.1315,-0.1334,-0.1361,-0.1375,-0.1402,-0.1423,-0.1427,-0.146,-0.1446,-0.1446,-0.1453,-0.1425,-0.1458,-0.1442,-0.1424,-0.1368,-0.1439,-0.1438,-0.1442,-0.1362,-0.136,-0.1358,-0.1357,0,0,-0.1254,-0.1304,-0.1313,-0.134,-0.137,-0.1386,-0.1431,-0.1463,-0.1495,-0.1515,-0.1554,-0.1552,-0.1548,-0.1534,-0.1516,-0.1518,-0.157,-0.1492,-0.149,-0.1492,-0.1602,-0.147,-0.1462,-0.1576,-0.1577,-0.1577,-0.1596,0,-0.1283,-0.1338,-0.1356,-0.1416,-0.1449,-0.1466,-0.1506,-0.1531,-0.1559,-0.1598,-0.159,-0.1615,-0.1581,-0.1596,-0.1599,-0.1571,-0.1581,-0.1566,-0.1534,-0.1532,-0.1403,-0.1461,-0.158,-0.1599,-0.16,-0.16,-0.1601,0,-0.1302,-0.134,-0.1404,-0.1471,-0.1489,-0.1525,-0.1584,-0.1619,-0.1658,-0.168,-0.17,-0.1695,-0.1703,-0.1671,-0.166,-0.1658,-0.1635,-0.1609,-0.161,-0.1434,-0.1406,-0.1505,-0.1607,-0.1606,-0.1606,-0.1605,-0.1605,0,-0.129,-0.1375,-0.143,-0.1447,-0.1519,-0.1558,-0.1599,-0.1644,-0.1662,-0.1729,-0.1738,-0.1769,-0.1762,-0.1759,-0.1694,-0.1698,-0.1665,-0.1672,-0.1532,-0.1524,-0.1583,-0.1575,-0.1664,-0.1664,-0.1664,-0.1663,-0.1663,0,-0.129,-0.1336,-0.1436,-0.1454,-0.1514,-0.1576,-0.1627,-0.1669,-0.1721,-0.1722,-0.1775,-0.1755,-0.1779,-0.1752,-0.1726,-0.1621,-0.1698,-0.1528,-0.1514,-0.1638,-0.1635,-0.1588,-0.1579,-0.1664,-0.1664,-0.1664,-0.1664,0,-0.1236,-0.1309,-0.1365,-0.1467,-0.15,-0.1534,-0.1602,-0.1626,-0.1699,-0.1703,-0.1719,-0.1743,-0.1704,-0.17,-0.1676,-0.1621,-0.1568,-0.151,-0.1636,-0.163,-0.1423,-0.142,-0.139,-0.1385,-0.1381,-0.1378,-0.1375,0,-0.1199,-0.1231,-0.1339,-0.136,-0.1401,-0.1466,-0.1491,-0.1586,-0.1598,-0.1652,-0.1632,-0.1628,-0.1622,-0.1487,-0.1511,-0.1475,-0.1439,-0.1435,-0.143,-0.1402,-0.1393,-0.1396,-0.1398,-0.1369,-0.1368,-0.1367,-0.1366,0,-0.1112,-0.1166,-0.1201,-0.1252,-0.1291,-0.1328,-0.1383,-0.1381,-0.1473,-0.1549,-0.1494,-0.1467,-0.1408,-0.1386,-0.135,-0.1322,-0.1463,-0.1395,-0.1403,-0.1398,-0.1377,-0.1372,-0.1379,-0.1352,-0.1354,-0.1356,-0.1356,0,-0.1025,-0.1024,-0.1083,-0.111,-0.1161,-0.1173,-0.1223,-0.1238,-0.1267,-0.1356,-0.1323,-0.1328,-0.1372,-0.1301,-0.127,-0.1233,-0.1223,-0.1209,-0.1227,-0.1243,-0.1181,-0.1133,-0.1012,0,0,0,0,0,-0.0929,-0.0918,-0.0936,-0.096,-0.1011,-0.1045,-0.1136,-0.1195,-0.129,-0.1212,-0.1273,-0.1216,-0.1162,-0.1169,-0.1096,-0.1202,-0.1229,-0.1116,-0.1225,-0.1278,-0.1293,-0.1232,0,0,0,0,0,0,-0.0859,-0.087,-0.0885,-0.0835,-0.0828,-0.0869,-0.0925,-0.1,-0.0979,-0.108,-0.1048,-0.1134,-0.1089,-0.1158,-0.1057,-0.1064,-0.111,-0.114,-0.1137,-0.1269,-0.1283,-0.1295,-0.1238,0,0,0,0,0]},{"header":{"parameterUnit":"m.s-1","parameterCategory":2,"la1":30.2991,"la2":30.254,"lo1":-89.0895,"lo2":-89.0444,"dy":0.0017,"dx":0.0017,"nx":28,"ny":28,"refTime":"2023-10-27T03:00:00:Z","depth":"4","parameterNumber":3,"parameterNumberName":"V-component_of_CURRENTS"},"data":[0,0,0,0,0,0,0,0,0,0,0,0,0,0,0,0,0,0,0,0,0,0,0,0,0,0,0,0,0,0,0,0,0,0,0,0,0,0,0,0,0,0,0,0,0,0,0,0,0,0,0,0,0,0,0,0,0,0,-0.013,-0.013,0,-0.0099,-0.0099,-0.0099,-0.0097,-0.0098,-0.0098,-0.0098,-0.0084,-0.0084,-0.0083,0,0,0,0,0,0,0,0,0,0,0,0,0,-0.0157,-0.0156,-0.013,-0.013,-0.0129,-0.0099,-0.0099,-0.0099,-0.0097,-0.0098,-0.0098,-0.0098,-0.0085,-0.0084,-0.0083,0,0,0,0,0,0,0,0,0,0,0,0,0,-0.0139,-0.0156,-0.0131,-0.0124,-0.0123,-0.0099,-0.0099,-0.0099,-0.0097,-0.0098,-0.0098,-0.0098,-0.0085,-0.0084,-0.0083,-0.0071,0,0,-0.008,-0.008,0,0,0,0,0,0,0,0,-0.014,-0.0138,-0.0126,-0.0124,-0.0123,-0.0101,-0.0103,-0.009,-0.0097,-0.0109,-0.0098,-0.0099,-0.009,-0.0089,-0.0084,-0.007,-0.007,-0.008,-0.008,-0.0079,-0.0079,0,0,0,0,0,0,0,-0.0141,-0.0139,-0.012,-0.0125,-0.0123,-0.0111,-0.011,-0.01,-0.01,-0.0108,-0.0107,-0.0101,-0.009,-0.0085,-0.0084,-0.0069,-0.008,-0.008,-0.0079,-0.0079,-0.0049,-0.0049,0,0,0,0,0,0,-0.0143,-0.0141,-0.0121,-0.0119,-0.0131,-0.0111,-0.0109,-0.0109,-0.0099,-0.0097,-0.0101,-0.0101,-0.0087,-0.0085,-0.0084,-0.0079,-0.008,-0.0079,-0.0078,-0.0049,-0.0049,-0.0049,0,0,0,0,0,0,-0.0144,-0.0142,-0.0122,-0.0127,-0.0124,-0.011,-0.011,-0.0108,-0.0107,-0.0093,-0.0093,-0.0102,-0.0087,-0.0085,-0.0075,-0.0078,-0.0078,-0.0077,-0.005,-0.0049,-0.0049,-0.0062,0,0,0,0,0,0,-0.0145,-0.0143,-0.0144,-0.0128,-0.0123,-0.0119,-0.011,-0.0107,-0.0102,-0.0102,-0.0094,-0.0093,-0.0087,-0.0076,-0.0074,-0.0076,-0.0077,-0.005,-0.0049,-0.0049,-0.0062,-0.0062,-0.0062,0,0,0,0,0,-0.0146,-0.0148,-0.0144,-0.0142,-0.0126,-0.0119,-0.0116,-0.0108,-0.0101,-0.0107,-0.0092,-0.0093,-0.0071,-0.0075,-0.0072,-0.0075,-0.005,-0.0049,-0.0049,-0.0062,-0.0062,-0.0062,0,0,0,0,0,0,-0.016,-0.0147,-0.0143,-0.0141,-0.0135,-0.0118,-0.0117,-0.0109,-0.0101,-0.0101,-0.0087,-0.0085,-0.008,-0.0072,-0.0076,-0.0064,-0.0062,-0.006,-0.0072,-0.0072,-0.0072,-0.0075,-0.0076,0,0,0,0,0,-0.0163,-0.0162,-0.0149,-0.0149,-0.0145,-0.0131,-0.0126,-0.0123,-0.0111,-0.0108,-0.0097,-0.0084,-0.0074,-0.0069,-0.0061,-0.0052,-0.0026,-0.0052,-0.0052,-0.0052,-0.0052,-0.0006,-0.0002,-0.0047,-0.0047,-0.0047,0,0,-0.0169,-0.016,-0.0161,-0.0151,-0.0144,-0.0144,-0.013,-0.0128,-0.0126,-0.0107,-0.0099,-0.0087,-0.0072,-0.0064,-0.006,-0.0058,-0.0025,-0.0051,-0.0052,-0.0051,-0.0005,-0.0,0.0004,-0.0046,-0.0046,-0.0046,0,0,-0.0184,-0.0173,-0.0181,-0.0175,-0.0166,-0.0156,-0.0157,-0.0143,-0.0136,-0.0126,-0.011,-0.0094,-0.0082,-0.0066,-0.0058,-0.0052,-0.0029,-0.0053,-0.0055,-0.001,-0.0006,-0.0002,0.004,0.0047,-0.0051,-0.0051,-0.0051,0,-0.0194,-0.0199,-0.0183,-0.0186,-0.0182,-0.0163,-0.0171,-0.0158,-0.0142,-0.013,-0.013,-0.0087,-0.0082,-0.0055,-0.0059,-0.0053,-0.0023,-0.0057,-0.001,-0.0005,-0.0001,0.004,0.0049,-0.0052,-0.0052,-0.0052,-0.0052,0,-0.0215,-0.0218,-0.022,-0.0218,-0.0212,-0.0216,-0.0196,-0.0186,-0.0171,-0.0153,-0.0125,-0.0101,-0.0075,-0.0072,-0.0068,-0.0034,-0.0022,-0.0017,-0.001,0.0003,0.0046,0.0055,-0.0053,-0.0052,-0.0052,-0.0052,0,0,-0.0239,-0.0238,-0.0239,-0.0247,-0.023,-0.0231,-0.0217,-0.0199,-0.0186,-0.0159,-0.0131,-0.011,-0.0086,-0.0074,-0.0054,-0.002,0.0028,-0.0011,-0.0008,0.0029,0.0131,0.0106,0.0114,0.0044,0.0046,0.0047,0.015,0,-0.0263,-0.0287,-0.0269,-0.0286,-0.0299,-0.0268,-0.0256,-0.0233,-0.0204,-0.017,-0.0125,-0.01,-0.0087,-0.0076,-0.0035,0.001,0.0052,-0.0,0.0114,0.0117,0.0093,0.0124,0.0052,0.0157,0.0159,0.0161,0.0162,0,-0.0291,-0.0304,-0.0332,-0.0328,-0.0327,-0.0329,-0.0302,-0.0287,-0.0228,-0.0202,-0.015,-0.011,-0.0052,-0.0049,0.006,0.0028,0.0076,0.0115,0.012,0.0107,0.011,0.0142,0.0179,0.0178,0.0176,0.0175,0.0174,0,-0.0333,-0.0343,-0.037,-0.0371,-0.0362,-0.0362,-0.0351,-0.0304,-0.0284,-0.022,-0.0194,-0.0108,-0.007,0.0012,0.009,0.008,0.021,0.0209,0.024,0.0239,0.0236,0.0231,0.0289,0.0289,0.0289,0.0288,0.0288,0,-0.0366,-0.0386,-0.0398,-0.0414,-0.0433,-0.0409,-0.0407,-0.0377,-0.0324,-0.0293,-0.0217,-0.0168,-0.0054,0.0034,0.0105,0.0203,0.023,0.0248,0.0267,0.0228,0.0221,0.0243,0.0237,0.0292,0.0291,0.0291,0.029,0,-0.0404,-0.0414,-0.0448,-0.0456,-0.046,-0.0475,-0.0456,-0.0445,-0.0392,-0.0345,-0.0326,-0.0205,-0.009,0.0025,0.0162,0.0213,0.031,0.0335,0.029,0.0303,0.0309,0.03,0.0391,0.0391,0.0391,0.0391,0.0391,0,-0.0425,-0.0451,-0.0486,-0.0509,-0.0517,-0.0532,-0.0535,-0.0491,-0.0466,-0.0365,-0.0336,-0.0218,-0.0133,0.0062,0.0168,0.0321,0.0327,0.0379,0.034,0.0312,0.0321,0.0312,0.0304,0.0391,0.0391,0.0391,0.0391,0,-0.046,-0.0478,-0.0504,-0.0553,-0.0578,-0.0593,-0.0588,-0.057,-0.05,-0.0457,-0.0332,-0.0219,-0.0086,0.0062,0.0176,0.028,0.0348,0.0379,0.0379,0.0343,0.0313,0.032,0.0312,0.0392,0.0392,0.0391,0.0391,0,-0.0483,-0.0512,-0.0549,-0.0583,-0.0623,-0.0634,-0.0628,-0.0576,-0.0538,-0.0412,-0.0374,-0.0217,-0.0118,0.0041,0.0149,0.0247,0.0263,0.0283,0.0289,0.029,0.0217,0.0161,0.0218,0,0,0,0,0,-0.0498,-0.0527,-0.0569,-0.0613,-0.0652,-0.0663,-0.0648,-0.0624,-0.0556,-0.0473,-0.0416,-0.0287,-0.01,-0.0007,0.0086,0.0125,0.0259,0.0235,0.0279,0.0392,0.0392,0.0319,0,0,0,0,0,0,-0.0512,-0.0556,-0.057,-0.0622,-0.0652,-0.0684,-0.0673,-0.0628,-0.0561,-0.0479,-0.0372,-0.0289,-0.0106,-0.0161,0.0079,0.0111,0.0147,0.0332,0.0334,0.0392,0.0392,0.0392,0.0317,0,0,0,0,0]}]]